Regional Weather Roundup
Issued by NWS

Home | Current Version | Previous Version | Text Only | Print | Product List | Glossary On
Versions: 1 2 3 4 5 6 7 8 9 10 11 12 13 14 15 16 17 18 19 20 21 22 23 24 25 26 27 28 29 30 31 32 33 34 35 36 37 38 39 40 41 42 43 44 45 46 47 48 49 50
503
ASUS43 KMPX 260310
RWRMN
WEATHER ROUNDUP FOR MINNESOTA
NATIONAL WEATHER SERVICE TWIN CITIES/CHANHASSEN MN
1000 PM CDT WED MAY 25 2016


NOTE: "FAIR" INDICATES FEW OR NO CLOUDS BELOW 12,000 FEET WITH NO
SIGNIFICANT WEATHER AND/OR OBSTRUCTIONS TO VISIBILITY. N/A MEANS
CURRENT SKY AND/OR WEATHER CONDITIONS ARE NOT AVAILABLE.

MNZ060>063-068>070-260400-
   Twin Cities Metro

CITY           SKY/WX    TMP DP  RH WIND       PRES   REMARKS
TWIN CITIES    PTCLDY    70  62  76 E10       29.81R
ST PAUL        CLEAR     68  62  81 SE7       29.82R
CRYSTAL        CLEAR     69  61  75 E5        29.80R
BLAINE         CLEAR     68  66  94 E6        29.82R
EDEN PRAIRIE   CLEAR     70  63  78 E8        29.80R
SOUTH ST PAUL  CLEAR     68  63  82 E5        29.82R
LAKE ELMO      FAIR      64  63  94 E3        29.84R
$$
MNZ001>005-007-008-013>017-022>024-027-028-260400-
   Northwest Minnesota

CITY           SKY/WX    TMP DP  RH WIND       PRES   REMARKS
BEMIDJI        CLOUDY    59  56  88 SE15G21   29.77R
HALLOCK        CLOUDY    61  57  88 E8        29.65F FOG
ROSEAU         CLOUDY    59  54  82 E14G22    29.70S
WARROAD        RAIN      57  54  88 E18G25    29.73S
THIEF RVR FALL CLOUDY    61  55  82 S15       29.71R
CROOKSTON      CLOUDY    61  59  94 SW14      29.70R
FOSSTON        CLEAR     57  57 100 S9        29.75R
DETROIT LAKES  CLEAR     61  59  94 S3        29.78S
MOORHEAD       CLEAR     61  59  94 CALM      29.74S
PARK RAPIDS    MOCLDY    61  58  90 SE10      29.78R
MAHNOMEN       FAIR      59  58  94 S8        29.75R
$$
MNZ006-009>011-018-025>026-260400-
   North Central Minnesota

CITY           SKY/WX    TMP DP  RH WIND       PRES   REMARKS
BAUDETTE       LGT RAIN  59  56  89 E16       29.76S
FLAG ISLAND    RAIN      57  55  94 E14G21    29.79S
INTL FALLS     CLOUDY    59  53  80 E5        29.82R
WASKISH        CLOUDY    59  55  88 SE12G20   29.77R
BIG FORK       CLOUDY    59  52  77 SE10      29.82R
LONGVILLE      CLOUDY    57  54  88 E5        29.82S
GRAND RAPIDS   CLOUDY    55  51  86 E7        29.85S
CRANE LAKE     CLOUDY    57  48  72 SE3       29.85F
ORR            CLOUDY    57  46  67 SE5       29.81S
COOK           CLOUDY    57  48  72 SE6       29.86R
WALKER         CLOUDY    59  55  84 SE13G18   29.79S
$$
MNZ012-019>021-037-260400-
   Northeast Minnesota

CITY           SKY/WX    TMP DP  RH WIND       PRES   REMARKS
DULUTH         CLOUDY    47  46  97 E9        29.89R
ELY            CLOUDY    57  46  67 SE9G16    29.87F
HIBBING        CLOUDY    52  50  93 SE10      29.86S
EVELETH        CLOUDY    54  50  87 E7        29.89R
DULUTH HARBOR  CLOUDY    45  45 100 NE14      29.91S
TWO HARBORS    CLOUDY    52  46  82 NE7       29.88S
GRAND MARAIS     N/A     48  43  82 NE5       29.95R
G MARAIS ARPRT CLOUDY    54  45  71 E6        29.97S
$$
MNZ029>031-032-039>041-046>048-054>057-064-260400-
   West Central Minnesota

CITY           SKY/WX    TMP DP  RH WIND       PRES   REMARKS
FERGUS FALLS   PTCLDY    63  61  94 E3        29.72S
WHEATON        CLOUDY    68  63  83 E10       29.75F
MORRIS         MOCLDY    70  55  60 SW8       29.77R
ALEXANDRIA     PTCLDY    65  57  75 CALM      29.79R
ELBOW LAKE     FAIR      64  62  92 SE5       29.77R
WADENA         MOCLDY    61  59  94 E6        29.78R
GLENWOOD       CLEAR     64  59  82 S5        29.80R
APPLETON       PTCLDY    70  57  64 SW6       29.79R
ORTONVILLE     MOCLDY    70  57  64 S5        29.79R
MADISON        MOCLDY    72  55  56 W7        29.82R
WILLMAR        FAIR      70  61  73 CALM      29.81R
$$
MNZ033>034-036-042>043-049>051-058-059-260400-
   Central Minnesota

CITY           SKY/WX    TMP DP  RH WIND       PRES   REMARKS
ST CLOUD       CLOUDY    62  60  93 E8        29.82R
SAUK CENTRE    CLOUDY    65  63  91 E13       29.80R
PAYNESVILLE    MOCLDY    68  67  96 CALM      29.80R
AITKIN         CLOUDY    57  50  77 E7        29.83R
PINE RIVER     CLOUDY    57  54  88 SE12      29.85R
BRAINERD       CLOUDY    57  54  89 SE7       29.83R
STAPLES        PTCLDY    57  55  94 E6        29.80S
LONG PRAIRIE   MOCLDY    63  61  94 E7        29.80R
LITTLE FALLS   CLOUDY    55  54  94 SE8       29.80S
LITCHFIELD     MOCLDY    68  66  94 CALM      29.80R
BUFFALO        PTCLDY    68  64  85 NE8       29.82R
MAPLE LAKE     MOCLDY    68  65  91 E7        29.82R
HUTCHINSON     CLEAR     69  64  85 CALM      29.81R
$$
MNZ037-044-045-052-053-260400-
   East Central Minnesota

CITY           SKY/WX    TMP DP  RH WIND       PRES   REMARKS
PRINCETON      CLOUDY    63  61  94 N6        29.85R
MORA           CLOUDY    55  52  88 SE5       29.86F
CAMBRIDGE      CLOUDY    64  55  72 NE6       29.83R
RUSH CITY      CLOUDY    59  57  93 CALM      29.85S
MOOSE LAKE     CLOUDY    46  45  93 E5        29.85S FOG
HINCKLEY       CLOUDY    55  55 100 E7        29.84F
CLOQUET        CLOUDY    46  45  93 E8        29.88R FOG
MCGREGOR       CLOUDY    52  50  93 E12       29.85F
$$
MNZ071>073-080-081-089-090-097-098-260400-
   Southwest Minnesota

CITY           SKY/WX    TMP DP  RH WIND       PRES   REMARKS
MONTEVIDEO     PTCLDY    72  55  56 W3        29.82R
GRANITE FALLS  CLOUDY    72  59  64 SW3       29.82R
CANBY          CLOUDY    71  60  69 W10       29.85R
MARSHALL       CLOUDY    70  60  70 W7        29.82R
REDWOOD FALLS  CLEAR     72  59  63 W6        29.80R
OLIVIA         CLEAR     68  61  77 SW5       29.80R
PIPESTONE      CLOUDY    70  61  73 NW5       29.84R
WINDOM         CLEAR     70  61  73 CALM      29.82R
WORTHINGTON    CLEAR     70  62  76 CALM      29.83R
JACKSON        CLEAR     70  59  68 CALM      29.83R
TRACY          CLOUDY    69  62  79 CALM      29.83R
SLAYTON        CLOUDY    69  60  73 W8        29.84R
$$
MNZ065>067-074>077-082>085-091>093-260400-
   South Central Minnesota

CITY           SKY/WX    TMP DP  RH WIND       PRES   REMARKS
MANKATO        CLEAR     72  57  60 CALM      29.81R
NEW ULM        CLEAR     72  61  68 S7        29.80R
ST JAMES       CLEAR     64  57  77 CALM      29.82R
FAIRMONT       CLEAR     70  59  68 CALM      29.82R
GLENCOE        CLEAR     72  64  78 CALM      29.79R
FARIBAULT      CLEAR     70  63  78 E3        29.82R
OWATONNA       CLEAR     68  63  83 E5        29.82S
WASECA         CLEAR     63  59  88 E3        29.82S
ALBERT LEA     PTCLDY    72  63  73 S6        29.83R
$$
MNZ078>079-086>088-094>096-260400-
   Southeast Minnesota

CITY           SKY/WX    TMP DP  RH WIND       PRES   REMARKS
ROCHESTER      CLEAR     67  65  93 S8        29.85R
RED WING       CLEAR     66  64  94 E6        29.82R
STANTON        CLEAR     69  64  85 E8        29.81R
DODGE CENTER   CLEAR     66  63  88 S7        29.84R
WINONA         CLEAR     70  68  94 CALM      29.84S
AUSTIN         PTCLDY    70  63  78 S3        29.84R
PRESTON        CLEAR     66  61  83 SE6       29.87R
$$
ABBREVIATIONS USED IN REMARKS
   TC - TEMPERATURES IN CELSIUS
  WCI - WIND CHILL INDEX
   HX - HEAT INDEX
  VSB - VISIBILITY
$$




USA.gov is the U.S. government's official web portal to all federal, state and local government web resources and services.